Location: Banios
(43.0451°N, 0.2335°E)
Time: 08:42:01
(UTC+00:00)

A-11 Canister half - Pass Details

Date: 18 May 2021
Orbit: 1527 x 1681 km, 47.3° (Epoch: 22 June)

Event Time Altitude Azimuth Distance (km) Brightness Sun altitude
Rises 15:37:27 0° 292° (WNW) 4,861 12.3 38.3°
Reaches altitude 10° 15:41:30 10° 278° (W) 3,894 12.3 37.6°
Maximum altitude 15:48:26 22° 233° (SW) 3,083 11.8 36.3°
Drops below altitude 10° 15:55:27 10° 188° (S) 3,930 11.4 35.1°
Sets 15:59:36 0° 174° (S) 4,918 11.6 34.3°
